| time (UTC) | temp F | wind direction | speed MPH | gust MPH | rain 1hr in | rain 24hr in | rain mn in | humidity % | barometer mb |
| 20260505011100 | 65 | 359 | 6.0 | 8.0 | 0.00 | 0.00 | 0.00 | 30 | 1002.7 |
| 20260505010600 | 65 | 359 | 10.0 | 12.0 | 0.00 | 0.00 | 0.00 | 31 | 1002.7 |
| 20260505010100 | 64 | 359 | 19.0 | 21.0 | 0.00 | 0.00 | 0.00 | 30 | 1002.7 |
| 20260505005600 | 64 | 359 | 21.0 | 31.0 | 0.00 | 0.00 | 0.00 | 31 | 1002.8 |
| 20260505005100 | 65 | 359 | 14.0 | 19.0 | 0.00 | 0.00 | 0.00 | 28 | 1002.7 |
| 20260505004600 | 66 | 359 | 13.0 | 18.0 | 0.00 | 0.00 | 0.00 | 29 | 1002.7 |
| 20260505004100 | 66 | 359 | 15.0 | 20.0 | 0.00 | 0.00 | 0.00 | 27 | 1002.6 |
| 20260505003600 | 66 | 359 | 16.0 | 20.0 | 0.00 | 0.00 | 0.00 | 27 | 1002.7 |
| 20260505003100 | 66 | 359 | 17.0 | 24.0 | 0.00 | 0.00 | 0.00 | 29 | 1002.6 |
| 20260505002600 | 66 | 359 | 14.0 | 22.0 | 0.00 | 0.00 | 0.00 | 28 | 1002.4 |
| 20260505002100 | 67 | 359 | 12.0 | 16.0 | 0.00 | 0.00 | 0.00 | 27 | 1002.5 |
| 20260505001600 | 67 | 359 | 12.0 | 17.0 | 0.00 | 0.00 | 0.00 | 26 | 1002.3 |
| 20260505001101 | 67 | 359 | 13.0 | 21.0 | 0.00 | 0.00 | 0.00 | 27 | 1002.2 |
| 20260505000600 | 67 | 359 | 12.0 | 17.0 | 0.00 | 0.00 | 0.00 | 26 | 1002.2 |
| 20260505000100 | 67 | 359 | 8.0 | 20.0 | 0.00 | 0.00 | 0.00 | 27 | 1002.5 |
| 20260504235601 | 67 | 359 | 11.0 | 15.0 | 0.00 | 0.00 | 0.00 | 25 | 1002.3 |
| 20260504235101 | 67 | 359 | 17.0 | 19.0 | 0.00 | 0.00 | 0.00 | 26 | 1002.4 |
| 20260504234601 | 67 | 359 | 18.0 | 32.0 | 0.00 | 0.00 | 0.00 | 25 | 1002.4 |
| 20260504234101 | 68 | 359 | 15.0 | 20.0 | 0.00 | 0.00 | 0.00 | 25 | 1002.2 |
| 20260504233601 | 68 | 359 | 11.0 | 20.0 | 0.00 | 0.00 | 0.00 | 25 | 1002.2 |
| 20260504233101 | 68 | 359 | 11.0 | 16.0 | 0.00 | 0.00 | 0.00 | 24 | 1002.0 |
| 20260504232601 | 68 | 359 | 14.0 | 16.0 | 0.00 | 0.00 | 0.00 | 24 | 1001.8 |
| 20260504232101 | 68 | 359 | 15.0 | 18.0 | 0.00 | 0.00 | 0.00 | 23 | 1001.8 |
| 20260504231601 | 69 | 359 | 14.0 | 19.0 | 0.00 | 0.00 | 0.00 | 24 | 1001.7 |
| 20260504231101 | 69 | 359 | 15.0 | 17.0 | 0.00 | 0.00 | 0.00 | 24 | 1001.6 |
| 20260504230601 | 69 | 359 | 16.0 | 18.0 | 0.00 | 0.00 | 0.00 | 23 | 1001.5 |
| 20260504230101 | 69 | 359 | 16.0 | 21.0 | 0.00 | 0.00 | 0.00 | 23 | 1001.4 |
| 20260504225601 | 69 | 359 | 15.0 | 22.0 | 0.00 | 0.00 | 0.00 | 24 | 1001.2 |
| 20260504225101 | 69 | 359 | 14.0 | 17.0 | 0.00 | 0.00 | 0.00 | 23 | 1001.2 |
| 20260504224601 | 69 | 359 | 14.0 | 19.0 | 0.00 | 0.00 | 0.00 | 22 | 1001.4 |
| 20260504224101 | 69 | 359 | 15.0 | 21.0 | 0.00 | 0.00 | 0.00 | 23 | 1001.3 |
| 20260504223601 | 69 | 359 | 17.0 | 23.0 | 0.00 | 0.00 | 0.00 | 23 | 1001.4 |
| 20260504223101 | 69 | 359 | 15.0 | 23.0 | 0.00 | 0.00 | 0.00 | 24 | 1001.4 |
| 20260504222601 | 69 | 359 | 15.0 | 20.0 | 0.00 | 0.00 | 0.00 | 23 | 1001.4 |
| 20260504222101 | 69 | 359 | 16.0 | 22.0 | 0.00 | 0.00 | 0.00 | 22 | 1001.3 |
| 20260504221601 | 69 | 359 | 15.0 | 22.0 | 0.00 | 0.00 | 0.00 | 23 | 1001.3 |
| 20260504221101 | 69 | 359 | 13.0 | 20.0 | 0.00 | 0.00 | 0.00 | 23 | 1001.3 |
| 20260504220601 | 69 | 359 | 13.0 | 17.0 | 0.00 | 0.00 | 0.00 | 22 | 1001.2 |
| 20260504220101 | 69 | 359 | 18.0 | 22.0 | 0.00 | 0.00 | 0.00 | 22 | 1001.4 |
| 20260504215601 | 69 | 359 | 18.0 | 28.0 | 0.00 | 0.00 | 0.00 | 22 | 1001.4 |
| 20260504215101 | 70 | 359 | 15.0 | 31.0 | 0.00 | 0.00 | 0.00 | 22 | 1001.2 |
| 20260504214601 | 70 | 359 | 18.0 | 22.0 | 0.00 | 0.00 | 0.00 | 21 | 1001.2 |
| 20260504214101 | 69 | 359 | 21.0 | 31.0 | 0.00 | 0.00 | 0.00 | 21 | 1001.4 |
| 20260504213601 | 70 | 359 | 20.0 | 23.0 | 0.00 | 0.00 | 0.00 | 22 | 1001.5 |
| 20260504213101 | 70 | 359 | 20.0 | 30.0 | 0.00 | 0.00 | 0.00 | 22 | 1001.6 |
| 20260504212601 | 70 | 359 | 18.0 | 26.0 | 0.00 | 0.00 | 0.00 | 21 | 1001.7 |
| 20260504212101 | 70 | 359 | 20.0 | 23.0 | 0.00 | 0.00 | 0.00 | 20 | 1001.7 |
| 20260504211601 | 70 | 359 | 21.0 | 29.0 | 0.00 | 0.00 | 0.00 | 20 | 1001.8 |
| 20260504211101 | 70 | 359 | 18.0 | 24.0 | 0.00 | 0.00 | 0.00 | 20 | 1002.0 |
| 20260504210601 | 71 | 359 | 8.0 | 19.0 | 0.00 | 0.00 | 0.00 | 19 | 1002.1 |
| 20260504210101 | 72 | 359 | 6.0 | 15.0 | 0.00 | 0.00 | 0.00 | 18 | 1002.2 |
| 20260504205601 | 71 | 359 | 4.0 | 14.0 | 0.00 | 0.00 | 0.00 | 19 | 1002.2 |
| 20260504205101 | 71 | 359 | 4.0 | 14.0 | 0.00 | 0.00 | 0.00 | 19 | 1002.3 |
| 20260504204601 | 71 | 359 | 8.0 | 13.0 | 0.00 | 0.00 | 0.00 | 18 | 1002.4 |
| 20260504204101 | 71 | 359 | 8.0 | 13.0 | 0.00 | 0.00 | 0.00 | 18 | 1002.3 |
| 20260504203601 | 71 | 359 | 7.0 | 14.0 | 0.00 | 0.00 | 0.00 | 18 | 1002.5 |
| 20260504203101 | 71 | 359 | 6.0 | 12.0 | 0.00 | 0.00 | 0.00 | 20 | 1002.5 |
| 20260504202601 | 71 | 359 | 7.0 | 12.0 | 0.00 | 0.00 | 0.00 | 19 | 1002.5 |
| 20260504202101 | 71 | 359 | 6.0 | 13.0 | 0.00 | 0.00 | 0.00 | 18 | 1002.7 |
| 20260504201601 | 71 | 359 | 3.0 | 10.0 | 0.00 | 0.00 | 0.00 | 19 | 1002.8 |
| 20260504201101 | 70 | 359 | 4.0 | 4.0 | 0.00 | 0.00 | 0.00 | 19 | 1002.8 |
| 20260504200601 | 70 | 359 | 10.0 | 15.0 | 0.00 | 0.00 | 0.00 | 19 | 1002.9 |
| 20260504195601 | 70 | 359 | 13.0 | 17.0 | 0.00 | 0.00 | 0.00 | 19 | 1002.8 |
| 20260504195101 | 70 | 359 | 16.0 | 22.0 | 0.00 | 0.00 | 0.00 | 18 | 1002.8 |
| 20260504194601 | 70 | 359 | 13.0 | 22.0 | 0.00 | 0.00 | 0.00 | 18 | 1002.7 |
| 20260504194101 | 70 | 359 | 8.0 | 16.0 | 0.00 | 0.00 | 0.00 | 19 | 1002.6 |
| 20260504193601 | 71 | 359 | 8.0 | 12.0 | 0.00 | 0.00 | 0.00 | 18 | 1002.8 |
| 20260504193101 | 71 | 359 | 9.0 | 17.0 | 0.00 | 0.00 | 0.00 | 18 | 1002.9 |
| 20260504192601 | 71 | 359 | 6.0 | 20.0 | 0.00 | 0.00 | 0.00 | 17 | 1002.6 |
| 20260504192101 | 71 | 359 | 5.0 | 9.0 | 0.00 | 0.00 | 0.00 | 17 | 1002.7 |
| 20260504191601 | 71 | 359 | 8.0 | 11.0 | 0.00 | 0.00 | 0.00 | 17 | 1002.6 |
| 20260504191101 | 70 | 359 | 9.0 | 16.0 | 0.00 | 0.00 | 0.00 | 17 | 1002.5 |
| 20260504190601 | 71 | 359 | 8.0 | 15.0 | 0.00 | 0.00 | 0.00 | 17 | 1002.6 |
| 20260504185601 | 71 | 359 | 7.0 | 10.0 | 0.00 | 0.00 | 0.00 | 18 | 1002.7 |
| 20260504185101 | 71 | 359 | 9.0 | 12.0 | 0.00 | 0.00 | 0.00 | 17 | 1002.8 |
| 20260504184601 | 71 | 359 | 8.0 | 16.0 | 0.00 | 0.00 | 0.00 | 17 | 1002.8 |
| 20260504184101 | 71 | 359 | 4.0 | 11.0 | 0.00 | 0.00 | 0.00 | 17 | 1002.8 |
| 20260504183601 | 71 | 359 | 2.0 | 6.0 | 0.00 | 0.00 | 0.00 | 17 | 1003.0 |
| 20260504183101 | 70 | 359 | 3.0 | 6.0 | 0.00 | 0.00 | 0.00 | 17 | 1003.1 |
| 20260504182601 | 70 | 359 | 6.0 | 6.0 | 0.00 | 0.00 | 0.00 | 17 | 1003.3 |
| 20260504182101 | 69 | 359 | 14.0 | 20.0 | 0.00 | 0.00 | 0.00 | 17 | 1003.3 |
| 20260504181601 | 69 | 359 | 17.0 | 33.0 | 0.00 | 0.00 | 0.00 | 18 | 1003.4 |
| 20260504181101 | 70 | 359 | 14.0 | 20.0 | 0.00 | 0.00 | 0.00 | 17 | 1003.3 |
| 20260504180601 | 70 | 359 | 13.0 | 18.0 | 0.00 | 0.00 | 0.00 | 17 | 1003.3 |
| 20260504175601 | 70 | 359 | 11.0 | 16.0 | 0.00 | 0.00 | 0.00 | 16 | 1003.2 |
| 20260504175101 | 71 | 359 | 8.0 | 16.0 | 0.00 | 0.00 | 0.00 | 17 | 1003.4 |
| 20260504174601 | 71 | 359 | 6.0 | 13.0 | 0.00 | 0.00 | 0.00 | 16 | 1003.5 |
| 20260504174101 | 71 | 359 | 5.0 | 10.0 | 0.00 | 0.00 | 0.00 | 15 | 1003.6 |
| 20260504173601 | 72 | 359 | 3.0 | 11.0 | 0.00 | 0.00 | 0.00 | 15 | 1003.6 |
| 20260504173101 | 71 | 359 | 4.0 | 5.0 | 0.00 | 0.00 | 0.00 | 16 | 1003.5 |
| 20260504172601 | 71 | 359 | 7.0 | 14.0 | 0.00 | 0.00 | 0.00 | 15 | 1003.7 |
| 20260504172101 | 71 | 359 | 10.0 | 17.0 | 0.00 | 0.00 | 0.00 | 15 | 1003.7 |
| 20260504171601 | 71 | 359 | 9.0 | 20.0 | 0.00 | 0.00 | 0.00 | 15 | 1003.7 |
| 20260504171101 | 71 | 359 | 8.0 | 18.0 | 0.00 | 0.00 | 0.00 | 15 | 1003.8 |
| 20260504170601 | 71 | 359 | 8.0 | 13.0 | 0.00 | 0.00 | 0.00 | 14 | 1003.9 |
| 20260504151102 | 66 | 359 | 5.0 | 9.0 | 0.00 | 0.00 | 0.00 | 29 | 1004.2 |
| 20260504150602 | 66 | 359 | 7.0 | 8.0 | 0.00 | 0.00 | 0.00 | 30 | 1004.4 |
| 20260504141157 | 62 | 359 | 5.0 | 9.0 | 0.00 | 0.00 | 0.00 | 31 | 1005.0 |
| 20260504141102 | 62 | 359 | 5.0 | 9.0 | 0.00 | 0.00 | 0.00 | 31 | 1005.0 |
| 20260504140602 | 61 | 359 | 6.0 | 6.0 | 0.00 | 0.00 | 0.00 | 34 | 1005.0 |
| 20260504130602 | 58 | 359 | 11.0 | 13.0 | 0.00 | 0.00 | 0.00 | 36 | 1005.2 |
| 20260504110602 | 54 | 359 | 11.0 | 12.0 | 0.00 | 0.00 | 0.00 | 36 | 1005.5 |
| 20260504100602 | 56 | 359 | 6.0 | 9.0 | 0.00 | 0.00 | 0.00 | 34 | 1005.5 |
| 20260504081603 | 57 | 359 | 5.0 | 8.0 | 0.00 | 0.00 | 0.00 | 33 | 1006.2 |
| 20260504081409 | 58 | 359 | 6.0 | 6.0 | 0.00 | 0.00 | 0.00 | 33 | 1006.3 |
| 20260504081144 | 58 | 359 | 6.0 | 6.0 | 0.00 | 0.00 | 0.00 | 33 | 1006.3 |
| 20260504081103 | 58 | 359 | 6.0 | 6.0 | 0.00 | 0.00 | 0.00 | 33 | 1006.3 |
| 20260504080603 | 60 | 359 | 9.0 | 10.0 | 0.00 | 0.00 | 0.00 | 30 | 1006.5 |
| 20260504050603 | 58 | 359 | 11.0 | 12.0 | 0.00 | 0.00 | 0.00 | 35 | 1008.0 |
| 20260504050103 | 59 | 359 | 11.0 | 12.0 | 0.00 | 0.00 | 0.00 | 34 | 1008.2 |
| 20260504045603 | 59 | 359 | 11.0 | 12.0 | 0.00 | 0.00 | 0.00 | 35 | 1008.2 |
| 20260504045103 | 59 | 359 | 12.0 | 14.0 | 0.00 | 0.00 | 0.00 | 34 | 1008.3 |
| 20260504044603 | 59 | 359 | 13.0 | 14.0 | 0.00 | 0.00 | 0.00 | 33 | 1008.4 |
| 20260504044103 | 60 | 359 | 12.0 | 14.0 | 0.00 | 0.00 | 0.00 | 32 | 1008.4 |
| 20260504043603 | 60 | 359 | 12.0 | 13.0 | 0.00 | 0.00 | 0.00 | 33 | 1008.5 |
| 20260504043103 | 60 | 359 | 12.0 | 14.0 | 0.00 | 0.00 | 0.00 | 32 | 1008.7 |
| 20260504042603 | 61 | 359 | 11.0 | 14.0 | 0.00 | 0.00 | 0.00 | 30 | 1008.7 |
| 20260504042103 | 61 | 359 | 11.0 | 14.0 | 0.00 | 0.00 | 0.00 | 31 | 1008.7 |
| 20260504041603 | 61 | 359 | 11.0 | 12.0 | 0.00 | 0.00 | 0.00 | 30 | 1008.7 |
| 20260504041103 | 60 | 359 | 11.0 | 13.0 | 0.00 | 0.00 | 0.00 | 31 | 1008.7 |
| 20260504040603 | 61 | 359 | 12.0 | 13.0 | 0.00 | 0.00 | 0.00 | 30 | 1008.7 |
| 20260504040103 | 61 | 359 | 13.0 | 14.0 | 0.00 | 0.00 | 0.00 | 29 | 1008.7 |
| 20260504035603 | 60 | 359 | 14.0 | 15.0 | 0.00 | 0.00 | 0.00 | 31 | 1008.8 |
| 20260504035103 | 60 | 359 | 15.0 | 16.0 | 0.00 | 0.00 | 0.00 | 31 | 1008.8 |
| 20260504034603 | 60 | 359 | 15.0 | 17.0 | 0.00 | 0.00 | 0.00 | 31 | 1008.7 |
| 20260504034103 | 63 | 359 | 16.0 | 17.0 | 0.00 | 0.00 | 0.00 | 29 | 1008.6 |
| 20260504033603 | 63 | 359 | 16.0 | 22.0 | 0.00 | 0.00 | 0.00 | 26 | 1008.5 |
| 20260504033103 | 63 | 359 | 17.0 | 18.0 | 0.00 | 0.00 | 0.00 | 25 | 1008.5 |
| 20260504032603 | 63 | 359 | 16.0 | 21.0 | 0.00 | 0.00 | 0.00 | 28 | 1008.4 |
| 20260504032103 | 65 | 359 | 14.0 | 18.0 | 0.00 | 0.00 | 0.00 | 23 | 1008.4 |
| 20260504031603 | 64 | 359 | 13.0 | 16.0 | 0.00 | 0.00 | 0.00 | 24 | 1008.4 |
| 20260504031103 | 63 | 359 | 11.0 | 15.0 | 0.00 | 0.00 | 0.00 | 25 | 1008.3 |
| 20260504030603 | 63 | 359 | 10.0 | 13.0 | 0.00 | 0.00 | 0.00 | 26 | 1008.3 |
| 20260504025603 | 63 | 359 | 8.0 | 10.0 | 0.00 | 0.00 | 0.00 | 28 | 1008.2 |
| 20260504025103 | 64 | 359 | 8.0 | 12.0 | 0.00 | 0.00 | 0.00 | 26 | 1008.2 |
| 20260504024603 | 65 | 359 | 9.0 | 11.0 | 0.00 | 0.00 | 0.00 | 24 | 1008.2 |
| 20260504024103 | 66 | 359 | 10.0 | 13.0 | 0.00 | 0.00 | 0.00 | 22 | 1008.1 |
| 20260504023603 | 67 | 359 | 11.0 | 12.0 | 0.00 | 0.00 | 0.00 | 20 | 1008.0 |
| 20260504023103 | 67 | 359 | 14.0 | 15.0 | 0.00 | 0.00 | 0.00 | 20 | 1008.0 |
| 20260504023012 | 68 | 359 | 16.0 | 17.0 | 0.00 | 0.00 | 0.00 | 20 | 1008.0 |
| 20260504022603 | 68 | 359 | 16.0 | 17.0 | 0.00 | 0.00 | 0.00 | 20 | 1008.0 |
| 20260504022103 | 68 | 359 | 15.0 | 20.0 | 0.00 | 0.00 | 0.00 | 18 | 1008.0 |
| 20260504021603 | 67 | 359 | 10.0 | 17.0 | 0.00 | 0.00 | 0.00 | 20 | 1007.9 |
| 20260504021103 | 68 | 359 | 8.0 | 13.0 | 0.00 | 0.00 | 0.00 | 20 | 1007.9 |
| 20260504020603 | 70 | 359 | 8.0 | 13.0 | 0.00 | 0.00 | 0.00 | 15 | 1007.8 |
| 20260504020103 | 69 | 359 | 6.0 | 15.0 | 0.00 | 0.00 | 0.00 | 15 | 1007.7 |
| 20260504015603 | 69 | 359 | 5.0 | 8.0 | 0.00 | 0.00 | 0.00 | 16 | 1007.6 |
| 20260504015103 | 69 | 359 | 5.0 | 6.0 | 0.00 | 0.00 | 0.00 | 16 | 1007.6 |
| 20260504014603 | 69 | 359 | 6.0 | 6.0 | 0.00 | 0.00 | 0.00 | 16 | 1007.6 |
| 20260504014103 | 68 | 359 | 7.0 | 9.0 | 0.00 | 0.00 | 0.00 | 17 | 1007.5 |
| 20260504013603 | 68 | 359 | 8.0 | 9.0 | 0.00 | 0.00 | 0.00 | 19 | 1007.6 |
| 20260504013103 | 69 | 359 | 7.0 | 13.0 | 0.00 | 0.00 | 0.00 | 17 | 1007.5 |
| 20260504012604 | 69 | 359 | 5.0 | 8.0 | 0.00 | 0.00 | 0.00 | 17 | 1007.6 |
| 20260504012104 | 69 | 359 | 4.0 | 6.0 | 0.00 | 0.00 | 0.00 | 16 | 1007.5 |
| 20260504011604 | 69 | 359 | 4.0 | 5.0 | 0.00 | 0.00 | 0.00 | 17 | 1007.5 |